Weather History for Blythe, CA

Change the Weather History Date:

Friday, February 8, 2013

  Actual Average Record
Temperature  
Mean Temperature 57 °F -  
Max Temperature 64 °F 67 °F 86 °F (1996)
Min Temperature 48 °F 43 °F 35 °F (2002)
Degree Days  
Heating Degree Days 8    
Growing Degree Days 7 (Base 50)    
Moisture  
Dew Point 32 °F    
Average Humidity 41    
Maximum Humidity 59    
Minimum Humidity 25    
Precipitation  
Precipitation 0.00 in - - ()
Sea Level Pressure  
Sea Level Pressure 29.84 in    
Wind  
Wind Speed 16 mph (SW)    
Max Wind Speed 28 mph    
Max Gust Speed 38 mph    
Visibility 10 miles    
Events      
Averages and records for this station are not official NWS values.
T = Trace of Precipitation, MM = Missing Value Source: NWS Daily Summary

Daily Weather History Graph

Daily Weather History Graph

Search for Another Location

Airport:

Trip Planner

Search our weather history database for the weather conditions in past years. The results will help you decide how hot, cold, wet, or windy it might be!

Date:

Astronomy

Feb. 08, 2013 Rise Set
Actual Time 6:29 AM PST 5:17 PM PST
Civil Twilight 6:03 AM PST 5:42 PM PST
Nautical Twilight 5:34 AM PST 6:12 PM PST
Astronomical Twilight 5:05 AM PST 6:41 PM PST
Moon 4:59 AM PST (2/8) 3:56 PM PST (2/8)
Length of Visible Light 11h 39m
Length of Day
10h 47m
Waning Crescent, 3% of the Moon is Illuminated
Feb 8
Waning Crescent
Feb 9
New
Feb 17
First Quarter
Feb 25
Full
Mar 4
Last Quarter

Hourly Weather History & Observations

Time (PST) Temp. Dew Point Humidity Pressure Visibility Wind Dir Wind Speed Gust Speed Precip Events Conditions
12:52 AM 60.1 °F 37.0 °F 42% 29.81 in 10.0 mi SSW 13.8 mph - N/A   Clear
1:52 AM 57.9 °F 37.0 °F 46% 29.83 in 10.0 mi WSW 16.1 mph - N/A   Clear
2:52 AM 55.9 °F 35.1 °F 45% 29.81 in 10.0 mi SSW 13.8 mph - N/A   Clear
3:52 AM 55.9 °F 34.0 °F 44% 29.81 in 10.0 mi SW 19.6 mph - N/A   Clear
4:52 AM 54.0 °F 34.0 °F 47% 29.83 in 10.0 mi SW 12.7 mph - N/A   Clear
5:52 AM 50.0 °F 36.0 °F 59% 29.85 in 10.0 mi South 9.2 mph - N/A   Clear
6:52 AM 53.1 °F 33.1 °F 47% 29.87 in 10.0 mi WSW 10.4 mph - N/A   Clear
7:52 AM 55.9 °F 34.0 °F 44% 29.86 in 10.0 mi SW 26.5 mph 33.4 mph N/A   Clear
8:52 AM 57.9 °F 34.0 °F 41% 29.90 in 10.0 mi SW 17.3 mph - N/A   Clear
9:52 AM 60.1 °F 30.9 °F 33% 29.90 in 10.0 mi SW 11.5 mph - N/A   Clear
10:52 AM 62.1 °F 27.0 °F 26% 29.90 in 10.0 mi WSW 16.1 mph - N/A   Clear
11:52 AM 62.1 °F 26.1 °F 25% 29.88 in 10.0 mi WSW 12.7 mph 17.3 mph N/A   Clear
12:52 PM 63.0 °F 26.1 °F 25% 29.84 in 10.0 mi South 13.8 mph 18.4 mph N/A   Clear
1:52 PM 64.0 °F 27.0 °F 25% 29.83 in 10.0 mi SW 21.9 mph 32.2 mph N/A   Clear
2:52 PM 62.1 °F 27.0 °F 26% 29.82 in 10.0 mi SW 27.6 mph 38.0 mph N/A   Mostly Cloudy
3:52 PM 59.0 °F 30.0 °F 33% 29.83 in 10.0 mi SW 23.0 mph 29.9 mph N/A   Overcast
4:52 PM 55.9 °F 34.0 °F 44% 29.83 in 10.0 mi West 21.9 mph - N/A   Overcast
5:52 PM 55.0 °F 32.0 °F 42% 29.81 in 10.0 mi WSW 23.0 mph 29.9 mph N/A   Scattered Clouds
6:52 PM 54.0 °F 33.1 °F 45% 29.81 in 10.0 mi West 18.4 mph 25.3 mph N/A   Clear
7:52 PM 54.0 °F 34.0 °F 47% 29.82 in 10.0 mi SW 18.4 mph - N/A   Overcast
8:52 PM 53.1 °F 33.1 °F 47% 29.82 in 10.0 mi SW 11.5 mph - N/A   Overcast
9:52 PM 52.0 °F 33.1 °F 49% 29.82 in 10.0 mi SW 15.0 mph - N/A   Partly Cloudy
10:52 PM 50.0 °F 35.1 °F 57% 29.83 in 10.0 mi SW 10.4 mph - N/A   Clear
11:52 PM 48.9 °F 34.0 °F 56% 29.84 in 10.0 mi SW 12.7 mph - N/A   Mostly Cloudy